IUS R/B(1), 16118

Orbit data source: Space-Track

IUS R/B(1), 16118 is space debris in HEO originally from a launch on Thu, 03 Oct 1985 UTC launched from the Air Force Eastern Test Range (AFETR). Debris objects in space refer to the collection of defunct objects orbiting the Earth. Examples of debris include non-operational satellites, rocket bodies, and fragments generated from explosions, collisions, or faulty payload assembly.

Not visible in the next 10 days
Identifier
16118, 1985-092D
Orbit
HEO
Country
Flag of USUS
Related business
Manufacturer
UTC CSD
Mission
Spacecraft
Bus & Motor
ORBUS 21, Unknown motor
Mass
~1,164 kg wet, ~1,164 kg dry
Launch date (UTC)
1985-10-03 (40 years ago)
Launch vehicle
Unknown
Launch site
Air Force Eastern Test Range (AFETR)
Object type
Payload
Rocket body
Debris
Shape & HBR
Unknown
Radar Cross Section
Large (>1 m²)

Expand to show TLE details & history
Last TLE update: 1 day ago

TLE from 1 day ago
0 IUS R/B(1)
1 16118U 85092D   25348.60749385  .00000381  00000-0  13200-2 0  9995
2 16118  24.9744 224.3079 7199300  72.8047 349.3747  2.29131665 56589
Epoch: 2025-12-14T14:34Z
TLE epoch observation values (Epoch: 2025-12-14T14:34:47.468Z)
Latitude
0.00003°
Longitude
-77.78574°
Altitude
3,250.954 km
Speed
8.148 km/s
True Right ascension
14h 57m 43s
True Declination
0° 00' 00"
Sunlit
Object was in daylight at epoch
Visualization orbit readout
Latitude
Unknown
Longitude
Unknown
Altitude
Unknown
Speed
Unknown
Apparent Right ascension
Unknown
Apparent Declination
Unknown
Sunlit
N/A
Visualization observer readout
Local Sidereal Time
13:22:56
Azimuth
Unknown
Elevation
Unknown
Doppler factor
Unknown
Orbital elements
Apogee altitude
35,429.963 km
Perigee altitude
429.811 km
Semi-major axis
24,308.024 km
Eccentricity
0.71993
Inclination
24.9744°
RAAN
224.3079°
Arg. of periapsis
72.8047°
True anomaly
287.03766°
Mean anomaly
349.3747°
Eccentric anomaly
326.77056°
Mean motion
0.57269 °/min
Orbital period
628.61 mins
BSTAR
0.00132
Loading maneuver chart data...
Computing Atmospheric mass density...
Loading historical data...
Loading historical data...
Loading historical data...
Loading historical data...
Loading historical data...
Loading historical data...
Loading historical data...
Other satellites on launch #92 in the year 1985 (1985-10-03 UTC)

Documentation

Showing up to 5 results
|